Location: Central Falls
(41.8900°N, 71.3929°W)
Time: 14:52:28
(UTC+00:00)

Vanguard 1 Rocket - Pass Details

Date: 04 December 2023
Orbit: 654 x 4218 km, 34.3° (Epoch: 24 February)

Event Time Altitude Azimuth Distance (km) Brightness Sun altitude
Rises 12:58:27 0° 266° (W) 7,198 11.5 8.6°
Reaches altitude 10° 13:04:09 10° 263° (W) 5,623 11.1 9.4°
Maximum altitude 13:18:18 55° 192° (SSW) 1,946 9.5 11.3°
Drops below altitude 10° 13:25:36 10° 116° (ESE) 3,009 11.7 12.3°
Sets 13:27:44 0° 111° (ESE) 3,712 11.8 12.5°
